Change the Weather History Date:

Sunday, October 6, 2013

  Actual Average (KMCE) Record (KMCE)
Temperature  
Mean Temperature 64 °F 67 °F  
Max Temperature 87 °F 83 °F 97 °F (2014)
Min Temperature 42 °F 51 °F 38 °F (1969)
Degree Days  
Heating Degree Days 0    
Month to date heating degree days  
Since 1 July heating degree days  
Cooling Degree Days 0    
Month to date cooling degree days  
Year to date cooling degree days  
Growing Degree Days 14 (Base 50)    
Moisture  
Dew Point 38 °F    
Average Humidity 57    
Maximum Humidity 100    
Minimum Humidity 11    
Precipitation  
Precipitation 0.00 in 0.01 in 0.15 in (2011)
Month to date precipitation 0.05  
Year to date precipitation 9.04  
Since 1 July precipitation 0.36  
Snow  
Snow 0.00 in - - ()
Month to date snowfall  
Since 1 July snowfall  
Since 1 September snowfall  
Snow Depth -    
Sea Level Pressure  
Sea Level Pressure 30.07 in    
Wind  
Wind Speed 2 mph (NE)    
Max Wind Speed 7 mph    
Max Gust Speed -    
Visibility 10 miles    
Events      
T = Trace of Precipitation, MM = Missing Value Source: NWS Daily Summary

Daily Weather History Graph

Daily Weather History Graph

Search for Another Location

Airport or City:

Trip Planner

Search our weather history database for the weather conditions in past years. The results will help you decide how hot, cold, wet, or windy it might be!

Date:

Astronomy

Oct. 06, 2013 Rise Set
Actual Time 7:02 AM PDT 6:37 PM PDT
Civil Twilight 6:36 AM PDT 7:03 PM PDT
Nautical Twilight 6:06 AM PDT 7:33 PM PDT
Astronomical Twilight 5:35 AM PDT 8:04 PM PDT
Moon 8:49 AM PDT (10/6) 7:43 PM PDT (10/6)
Length of Visible Light 12h 27m
Length of Day
11h 35m
Waxing Crescent, 4% of the Moon is Illuminated
Oct 6
Waxing Crescent
Oct 11
First Quarter
Oct 18
Full
Oct 26
Last Quarter
Nov 3
New

Hourly Weather History & Observations

Time (PDT) Temp. Windchill Dew Point Humidity Pressure Visibility Wind Dir Wind Speed Gust Speed Precip Events Conditions
12:15 AM 53.6 °F - 37.4 °F 54% 30.12 in 10.0 mi Calm Calm - N/A   Clear
12:35 AM 50.0 °F - 35.6 °F 58% 30.12 in 10.0 mi Calm Calm - N/A   Clear
12:55 AM 48.2 °F - 42.8 °F 82% 30.12 in 10.0 mi SE 3.5 mph - N/A   Clear
1:15 AM 48.2 °F - 41.0 °F 76% 30.12 in 10.0 mi Calm Calm - N/A   Clear
1:35 AM 50.0 °F - 42.8 °F 76% 30.12 in 10.0 mi North - - N/A   Clear
1:55 AM 48.2 °F - 42.8 °F 82% 30.12 in 10.0 mi Calm Calm - N/A   Clear
2:15 AM 48.2 °F - 44.6 °F 87% 30.12 in 10.0 mi Calm Calm - N/A   Clear
2:35 AM 46.4 °F 45.2 °F 42.8 °F 87% 30.11 in 10.0 mi ESE 3.5 mph - N/A   Clear
2:55 AM 46.4 °F - 42.8 °F 87% 30.11 in 10.0 mi Calm Calm - N/A   Clear
3:15 AM 46.4 °F - 42.8 °F 87% 30.11 in 10.0 mi Calm Calm - N/A   Clear
3:35 AM 48.2 °F - 41.0 °F 76% 30.11 in 10.0 mi Calm Calm - N/A   Clear
3:55 AM 46.4 °F - 42.8 °F 87% 30.10 in 10.0 mi Calm Calm - N/A   Clear
4:15 AM 44.6 °F - 39.2 °F 81% 30.10 in 10.0 mi Calm Calm - N/A   Clear
4:35 AM 44.6 °F - 37.4 °F 76% 30.10 in 10.0 mi Calm Calm - N/A   Clear
4:55 AM 44.6 °F - 39.2 °F 81% 30.10 in 10.0 mi Calm Calm - N/A   Clear
5:15 AM 44.6 °F - 39.2 °F 81% 30.10 in 10.0 mi Calm Calm - N/A   Clear
5:35 AM 44.6 °F - 41.0 °F 87% 30.10 in 10.0 mi Calm Calm - N/A   Clear
5:55 AM 42.8 °F - 39.2 °F 87% 30.11 in 10.0 mi Calm Calm - N/A   Clear
6:15 AM 42.8 °F 41.1 °F 39.2 °F 87% 30.11 in 10.0 mi ESE 3.5 mph - N/A   Clear
6:35 AM 42.8 °F 41.1 °F 39.2 °F 87% 30.12 in 10.0 mi ESE 3.5 mph - N/A   Clear
6:45 AM 42.8 °F - 42.8 °F 100% 30.12 in 10.0 mi Calm Calm - N/A   Clear
6:55 AM 42.8 °F 41.1 °F 41.0 °F 93% 30.12 in 10.0 mi SE 3.5 mph - N/A   Clear
7:45 AM 46.4 °F - 39.2 °F 76% 30.13 in 10.0 mi Calm Calm - N/A   Clear
8:45 AM 57.2 °F - 33.8 °F 41% 30.14 in 10.0 mi SSE 4.6 mph - N/A   Clear
9:45 AM 66.2 °F - 37.4 °F 35% 30.14 in 10.0 mi South 4.6 mph - N/A   Clear
11:45 AM 78.8 °F - 35.6 °F 21% 30.12 in 10.0 mi West 3.5 mph - N/A   Partly Cloudy
12:45 PM 82.4 °F - 32.0 °F 16% 30.10 in 10.0 mi WSW 4.6 mph - N/A   Scattered Clouds
1:45 PM 87.8 °F - 28.4 °F 12% 30.07 in 10.0 mi Variable 3.5 mph - N/A   Scattered Clouds
2:45 PM 87.8 °F - 32.0 °F 14% 30.05 in 10.0 mi Variable 4.6 mph - N/A   Mostly Cloudy
3:45 PM 87.8 °F - 28.4 °F 12% 30.03 in 10.0 mi Variable 3.5 mph - N/A   Mostly Cloudy
4:45 PM 84.2 °F - 24.8 °F 11% 30.01 in 10.0 mi Calm Calm - N/A   Mostly Cloudy
5:45 PM 82.4 °F - 28.4 °F 14% 30.00 in 10.0 mi Calm Calm - N/A   Mostly Cloudy
6:45 PM 75.2 °F - 39.2 °F 27% 30.00 in 10.0 mi Calm Calm - N/A   Mostly Cloudy
7:45 PM 71.6 °F - 37.4 °F 29% 30.00 in 10.0 mi North 5.8 mph - N/A   Clear
8:45 PM 64.4 °F - 39.2 °F 40% 30.00 in 10.0 mi North 6.9 mph - N/A   Clear
9:15 PM 69.8 °F - 37.4 °F 31% 30.00 in 10.0 mi NE 6.9 mph - N/A   Clear
9:35 PM 66.2 °F - 39.2 °F 37% 30.00 in 10.0 mi NE 6.9 mph - N/A   Clear
9:55 PM 64.4 °F - 39.2 °F 40% 30.00 in 10.0 mi NE 4.6 mph - N/A   Clear
10:15 PM 64.4 °F - 39.2 °F 40% 30.00 in 10.0 mi NE 3.5 mph - N/A   Clear
10:35 PM 62.6 °F - 39.2 °F 42% 30.00 in 10.0 mi Calm Calm - N/A   Clear
10:55 PM 62.6 °F - 39.2 °F 42% 30.00 in 10.0 mi North 3.5 mph - N/A   Clear
11:15 PM 62.6 °F - 39.2 °F 42% 29.99 in 10.0 mi North 3.5 mph - N/A   Clear
11:35 PM 60.8 °F - 39.2 °F 45% 29.99 in 10.0 mi NW 5.8 mph - N/A   Clear
11:55 PM 60.8 °F - 39.2 °F 45% 29.99 in 10.0 mi North 5.8 mph - N/A   Clear